GW1597 Weather Reports


time (UTC)temp
C
wind
direction
speed
KPH
gust
KPH
rain 1hr
cm
rain 24hr
cm
rain mn
cm
humidity
%
barometer
mb
20260510204552 25 128 6.4 11.3 0.00 0.00 0.00 47 987.8
20260510203930 25 98 4.8 8.0 0.00 0.00 0.00 46 987.8
20260510203333 26 118 9.7 16.1 0.00 0.00 0.00 46 987.8
20260510202745 26 129 8.0 16.1 0.00 0.00 0.00 45 988.1
20260510202136 26 52 8.0 12.9 0.00 0.00 0.00 44 988.1
20260510200912 26 343 4.8 8.0 0.00 0.00 0.00 45 988.1
20260510200339 26 84 3.2 9.7 0.00 0.00 0.00 46 988.1
20260510195720 26 117 8.0 9.7 0.00 0.00 0.00 46 988.1
20260510195153 26 339 1.6 4.8 0.00 0.00 0.00 46 988.1
20260510194535 26 301 0.0 12.9 0.00 0.00 0.00 45 988.1
20260510193952 25 89 3.2 8.0 0.00 0.00 0.00 47 988.1
20260510193321 25 65 3.2 6.4 0.00 0.00 0.00 53 988.4
20260510192731 24 114 0.0 4.8 0.00 0.00 0.00 53 988.4
20260510192132 24 122 0.0 1.6 0.00 0.00 0.00 54 988.4
20260510191534 24 98 3.2 4.8 0.00 0.00 0.00 50 988.4
20260510190926 25 219 0.0 3.2 0.00 0.00 0.00 52 988.4
20260510190319 25 86 1.6 6.4 0.00 0.00 0.00 48 988.4
20260510185121 25 77 8.0 9.7 0.00 0.00 0.00 45 988.1
20260510184544 26 35 9.7 14.5 0.00 0.00 0.00 45 988.1
20260510183943 26 32 0.0 8.0 0.00 0.00 0.00 43 988.1
20260510183349 26 118 8.0 8.0 0.00 0.00 0.00 45 987.8
20260510182738 27 128 3.2 14.5 0.00 0.00 0.00 42 987.8
20260510182115 26 176 11.3 14.5 0.00 0.00 0.00 44 987.8
20260510181544 26 155 4.8 14.5 0.00 0.00 0.00 44 987.8
20260510180934 26 131 9.7 19.3 0.00 0.00 0.00 42 987.8
20260510180317 26 131 20.9 22.5 0.00 0.00 0.00 45 988.1
20260510175741 26 121 12.9 20.9 0.00 0.00 0.00 44 987.8
20260510175152 26 77 9.7 12.9 0.00 0.00 0.00 44 987.8
20260510173950 27 95 9.7 12.9 0.00 0.00 0.00 42 988.1
20260510173326 28 84 0.0 8.0 0.00 0.00 0.00 43 988.1
20260510172724 28 145 0.0 4.8 0.00 0.00 0.00 43 987.8
20260510172111 28 327 1.6 6.4 0.00 0.00 0.00 44 987.8
20260510170336 28 137 1.6 6.4 0.00 0.00 0.00 47 988.1
20260510165751 27 203 3.2 9.7 0.00 0.00 0.00 45 988.1
20260510164545 27 148 4.8 4.8 0.00 0.00 0.00 45 988.1
20260510163944 27 224 0.0 4.8 0.00 0.00 0.00 46 988.1
20260510162724 26 308 1.6 4.8 0.00 0.00 0.00 53 988.4
20260510161529 25 309 4.8 11.3 0.00 0.00 0.00 53 988.8
20260510160950 26 70 4.8 4.8 0.00 0.00 0.00 54 988.8
20260510155736 25 290 1.6 6.4 0.00 0.00 0.00 56 989.1
20260510155150 25 313 1.6 3.2 0.00 0.00 0.00 58 989.1
20260510154523 24 312 0.0 1.6 0.00 0.00 0.00 60 989.1
20260510153949 23 335 0.0 1.6 0.00 0.00 0.00 62 989.1
20260510153322 23 117 0.0 0.0 0.00 0.00 0.00 63 989.1
20260510152733 22 340 0.0 1.6 0.00 0.00 0.00 65 989.5
20260510152149 22 124 0.0 4.8 0.00 0.00 0.00 65 989.5
20260510151535 22 338 1.6 3.2 0.00 0.00 0.00 64 989.5
20260510150914 22 330 0.0 0.0 0.00 0.00 0.00 65 989.5
20260510150339 22 330 0.0 1.6 0.00 0.00 0.00 68 989.5
20260510145717 21 300 0.0 1.6 0.00 0.00 0.00 66 989.5
20260510145138 21 300 0.0 0.0 0.00 0.00 0.00 70 989.5
20260510144510 20 300 0.0 1.6 0.00 0.00 0.00 68 989.8
20260510143926 20 300 0.0 1.6 0.00 0.00 0.00 74 989.5
20260510143335 20 301 0.0 0.0 0.00 0.00 0.00 71 989.8
20260510142713 20 301 0.0 4.8 0.00 0.00 0.00 72 989.5
20260510142128 20 316 0.0 1.6 0.00 0.00 0.00 72 989.5
20260510140929 18 316 0.0 0.0 0.00 0.00 0.00 82 989.8
20260510135715 17 316 0.0 0.0 0.00 0.00 0.00 84 989.8
20260510135116 17 316 0.0 0.0 0.00 0.00 0.00 82 989.8
20260510134511 16 316 0.0 0.0 0.00 0.00 0.00 83 989.8
20260510133348 15 316 0.0 0.0 0.00 0.00 0.00 87 989.8
20260510132749 14 316 0.0 0.0 0.00 0.00 0.00 89 989.8
20260510131517 13 316 0.0 0.0 0.00 0.00 0.00 91 990.1
20260510130920 12 316 0.0 0.0 0.00 0.00 0.00 92 990.1
20260510130331 12 316 0.0 0.0 0.00 0.00 0.00 92 990.1
20260510125751 11 316 0.0 0.0 0.00 0.00 0.00 93 990.1
20260510125144 11 316 0.0 0.0 0.00 0.00 0.00 94 990.1
20260510123308 10 316 0.0 0.0 0.00 0.00 0.00 95 990.5
20260510122729 10 310 3.2 3.2 0.00 0.00 0.00 95 990.1
20260510122133 10 308 3.2 3.2 0.00 0.00 0.00 95 990.1
20260510121511 10 312 3.2 4.8 0.00 0.00 0.00 95 990.1
20260510120949 10 346 3.2 6.4 0.00 0.00 0.00 95 990.1
20260510115743 10 332 3.2 6.4 0.00 0.00 0.00 95 990.1
20260510114518 10 314 4.8 6.4 0.00 0.00 0.00 95 989.8
20260510113914 10 323 3.2 4.8 0.00 0.00 0.00 96 989.8
20260510112710 9 312 3.2 6.4 0.00 0.00 0.00 96 989.8
20260510112131 9 347 1.6 4.8 0.00 0.00 0.00 96 989.5
20260510111532 9 318 0.0 6.4 0.00 0.00 0.00 96 989.5
20260510110933 9 315 0.0 6.4 0.00 0.00 0.00 96 989.5
20260510110312 9 342 4.8 6.4 0.00 0.00 0.00 96 989.5
20260510105747 9 316 4.8 6.4 0.00 0.00 0.00 96 989.1
20260510105143 9 316 4.8 6.4 0.00 0.00 0.00 96 989.1
20260510103934 9 316 0.0 6.4 0.00 0.00 0.00 96 989.1
20260510103324 9 328 3.2 3.2 0.00 0.00 0.00 96 989.1
20260510102717 9 331 3.2 6.4 0.00 0.00 0.00 96 989.1
20260510102142 9 342 3.2 3.2 0.00 0.00 0.00 96 988.8
20260510101510 9 323 1.6 4.8 0.00 0.00 0.00 96 988.8
20260510100351 9 324 1.6 4.8 0.00 0.00 0.00 96 988.4
20260510095710 9 347 1.6 3.2 0.00 0.00 0.00 96 988.4
20260510095139 9 319 1.6 1.6 0.00 0.00 0.00 96 988.4
20260510094539 9 319 0.0 0.0 0.00 0.00 0.00 96 988.1
20260510093908 9 318 0.0 3.2 0.00 0.00 0.00 96 988.4
20260510093327 9 325 0.0 3.2 0.00 0.00 0.00 96 988.1
20260510092725 8 325 1.6 3.2 0.00 0.00 0.00 96 988.1
20260510092129 8 319 0.0 1.6 0.00 0.00 0.00 96 988.1
20260510091537 8 319 0.0 0.0 0.00 0.00 0.00 96 988.1
20260510090909 8 319 0.0 0.0 0.00 0.00 0.00 96 988.1
20260510090341 8 319 0.0 0.0 0.00 0.00 0.00 96 987.8
20260510085716 8 319 0.0 0.0 0.00 0.00 0.00 96 987.8
20260510083948 8 319 0.0 0.0 0.00 0.00 0.00 96 987.8
20260510083352 8 319 1.6 3.2 0.00 0.00 0.00 96 987.8
20260510082744 8 300 0.0 0.0 0.00 0.00 0.00 96 987.4
20260510082119 8 300 0.0 0.0 0.00 0.00 0.00 96 987.8
20260510081549 8 300 0.0 0.0 0.00 0.00 0.00 96 987.4
20260510080918 8 300 0.0 0.0 0.00 0.00 0.00 96 987.8
20260510080327 8 300 0.0 0.0 0.00 0.00 0.00 96 987.4
20260510075750 8 300 0.0 0.0 0.00 0.00 0.00 95 987.4
20260510074542 9 300 0.0 0.0 0.00 0.00 0.00 96 987.4
20260510073942 9 300 0.0 0.0 0.00 0.00 0.00 96 987.4
20260510073347 9 300 0.0 0.0 0.00 0.00 0.00 96 987.4
20260510072734 9 300 0.0 0.0 0.00 0.00 0.00 96 987.4
20260510072126 9 202 0.0 0.0 0.00 0.00 0.00 96 987.4
20260510071546 9 202 0.0 0.0 0.00 0.00 0.00 96 987.4
20260510070925 9 202 0.0 0.0 0.00 0.00 0.00 96 987.4
20260510070312 9 202 0.0 0.0 0.00 0.00 0.00 96 987.1
20260510065734 9 202 0.0 0.0 0.00 0.00 0.00 96 987.1
20260510065141 9 202 0.0 0.0 0.00 0.00 0.00 96 987.1
20260510063923 8 202 0.0 0.0 0.00 0.00 0.00 96 987.1
20260510063330 9 202 0.0 0.0 0.00 0.00 0.00 96 987.1
20260510062709 9 202 0.0 0.0 0.00 0.00 0.00 96 987.1
20260510062146 9 202 0.0 0.0 0.00 0.00 0.00 96 987.1
20260510061534 9 202 0.0 0.0 0.00 0.00 0.00 96 987.1
20260510060949 9 202 0.0 0.0 0.00 0.00 0.00 96 987.1
20260510060341 9 202 0.0 0.0 0.00 0.00 0.00 96 987.1
20260510055725 9 202 0.0 0.0 0.00 0.00 0.00 96 987.1
20260510055118 9 202 0.0 0.0 0.00 0.00 0.00 96 987.4
20260510054538 9 202 0.0 0.0 0.00 0.00 0.00 95 987.4
20260510053314 9 202 0.0 0.0 0.00 0.00 0.00 95 987.4
20260510052149 9 202 0.0 0.0 0.00 0.00 0.00 95 987.4
20260510051548 9 202 0.0 0.0 0.00 0.00 0.00 95 987.4
20260510050912 9 202 0.0 0.0 0.00 0.00 0.00 95 987.1
20260510050332 10 202 1.6 1.6 0.00 0.00 0.00 95 987.1
20260510045721 10 202 0.0 0.0 0.00 0.00 0.00 95 987.4
20260510045110 10 202 0.0 0.0 0.00 0.00 0.00 95 987.1
20260510043931 10 202 0.0 0.0 0.00 0.00 0.00 95 987.1
20260510043338 10 202 0.0 0.0 0.00 0.00 0.00 95 987.1
20260510042711 10 202 0.0 0.0 0.00 0.00 0.00 95 987.1
20260510042145 10 202 0.0 0.0 0.00 0.00 0.00 95 987.1
20260510041533 10 202 0.0 0.0 0.00 0.00 0.00 95 987.1
20260510040924 10 202 0.0 0.0 0.00 0.00 0.00 95 987.1
20260510040343 10 202 0.0 0.0 0.00 0.00 0.00 95 987.1
20260510035747 10 202 0.0 0.0 0.00 0.00 0.00 95 987.1
20260510035123 10 202 0.0 0.0 0.00 0.00 0.00 95 987.1
20260510034541 10 202 0.0 0.0 0.00 0.00 0.00 95 987.1
20260510033909 10 202 0.0 0.0 0.00 0.00 0.00 95 987.1
20260510033316 10 202 0.0 0.0 0.00 0.00 0.00 95 986.7
20260510032752 11 202 0.0 0.0 0.00 0.00 0.00 95 987.1
20260510032147 11 203 0.0 0.0 0.00 0.00 0.00 95 986.7
20260510031524 11 202 0.0 0.0 0.00 0.00 0.00 95 986.7
20260510030919 11 202 0.0 0.0 0.00 0.00 0.00 95 986.4
20260510030328 11 202 0.0 0.0 0.00 0.00 0.00 94 986.4
20260510025732 11 203 0.0 0.0 0.00 0.00 0.00 94 986.4
20260510025123 11 203 3.2 3.2 0.00 0.00 0.00 94 986.4
20260510023940 11 202 0.0 0.0 0.00 0.00 0.00 94 986.4
20260510022739 11 202 0.0 0.0 0.00 0.00 0.00 94 986.4
20260510021510 12 202 0.0 0.0 0.00 0.00 0.00 93 986.4
20260510020952 12 202 0.0 0.0 0.00 0.00 0.00 93 986.1
20260510015740 12 202 0.0 0.0 0.00 0.00 0.00 93 986.1
20260510015143 12 202 0.0 0.0 0.00 0.00 0.00 93 985.7
20260510014511 12 202 0.0 0.0 0.00 0.00 0.00 92 985.7
20260510013946 12 202 0.0 0.0 0.00 0.00 0.00 92 985.4
20260510012725 13 202 0.0 0.0 0.00 0.00 0.00 92 985.1
20260510012131 13 202 0.0 0.0 0.00 0.00 0.00 91 985.1
20260510011556 13 202 0.0 0.0 0.00 0.00 0.00 91 985.1
20260510010951 13 202 0.0 0.0 0.00 0.00 0.00 90 985.1
20260510010348 13 202 0.0 0.0 0.00 0.00 0.00 90 984.7
20260510005143 14 202 1.6 1.6 0.00 0.00 0.00 89 984.7
20260510004550 15 202 0.0 0.0 0.00 0.00 0.00 88 984.7
20260510003307 15 196 0.0 0.0 0.00 0.00 0.00 86 984.7
20260510002716 15 196 0.0 0.0 0.00 0.00 0.00 86 984.7
20260510001511 16 196 0.0 1.6 0.00 0.00 0.00 83 984.4
20260510000943 16 196 0.0 0.0 0.00 0.00 0.00 81 984.0
20260510000349 16 196 0.0 0.0 0.00 0.00 0.00 81 984.0
20260509235710 17 196 0.0 0.0 0.00 0.00 0.00 79 984.0
20260509235126 17 196 1.6 3.2 0.00 0.00 0.00 77 984.0
20260509234543 17 196 1.6 1.6 0.00 0.00 0.00 76 984.0
20260509233949 18 196 0.0 0.0 0.00 0.00 0.00 74 984.0
20260509233339 18 188 1.6 1.6 0.00 0.00 0.00 73 983.7
20260509232130 19 222 0.0 1.6 0.00 0.00 0.00 70 983.7
20260509231509 19 222 0.0 1.6 0.00 0.00 0.00 72 983.7
20260509230951 20 222 0.0 4.8 0.00 0.00 0.00 69 983.7
20260509230332 20 186 1.6 3.2 0.00 0.00 0.00 67 983.7
20260509225146 21 134 0.0 4.8 0.00 0.00 0.00 64 983.7
20260509224535 21 120 0.0 16.1 0.00 0.00 0.00 60 983.7
20260509223928 21 227 3.2 6.4 0.00 0.00 0.00 63 983.7
20260509223343 22 124 0.0 9.7 0.00 0.00 0.00 59 983.7
20260509222130 22 333 0.0 1.6 0.00 0.00 0.00 61 983.7
20260509220918 22 117 4.8 6.4 0.00 0.00 0.00 58 984.0
20260509220326 22 70 0.0 8.0 0.00 0.00 0.00 57 984.0
20260509215723 23 323 4.8 6.4 0.00 0.00 0.00 55 984.0
20260509215134 22 267 0.0 3.2 0.00 0.00 0.00 57 984.0
20260509214520 22 48 1.6 1.6 0.00 0.00 0.00 59 984.0
20260509213335 21 127 8.0 11.3 0.00 0.00 0.00 57 984.0
20260509212739 21 129 0.0 3.2 0.00 0.00 0.00 58 984.0
20260509212145 21 128 6.4 14.5 0.00 0.00 0.00 56 984.0
20260509211542 21 311 3.2 8.0 0.00 0.00 0.00 57 984.0
20260509210931 21 92 6.4 8.0 0.00 0.00 0.00 56 984.0
20260509210318 21 314 0.0 3.2 0.00 0.00 0.00 56 984.0
20260509205747 22 229 0.0 1.6 0.00 0.00 0.00 58 984.0
20260509205134 22 102 0.0 4.8 0.00 0.00 0.00 56 984.0